User: anonymous   Login
Location: Elstree
(51.6403°N, 0.2969°W)
Time: 04:54:02
(UTC+00:00)
Language:

ERS-2 - Orbit

View from above orbital plane
View from above orbital plane
View from above satellite
View from above satellite

Ground track
Ground track

The orbit data is extracted from the following two-line orbital elements,

1 23560U 95021A   21125.45682260  .00000914  00000-0  41624-4 0  9992
2 23560  98.5524 329.6180 0004119 138.3970 221.7578 15.23877977391142
Epoch (UTC): 05 May 2021 10:57:49
Eccentricity: 0.0004119
inclination: 98.5524°
perigee height: 491 km
apogee height: 497 km
right ascension of ascending node: 329.6180°
argument of perigee: 138.3970°
revolutions per day: 15.23877977
mean anomaly at epoch: 221.7578°
orbit number at epoch: 39114

The dashed part of the orbit path shows where the satellite is in the earth's shadow,  

DLR